Location: Big Prairie
(40.6673°N, 82.0952°W)
Time: 16:24:03
(UTC+00:00)

Cosmos 841 Rocket - Pass Details

Date: 04 July 2022
Orbit: 745 x 772 km, 74.0° (Epoch: 18 August)

Event Time Altitude Azimuth Distance (km) Brightness Sun altitude
Exits shadow 06:29:15 33° 114° (ESE) 1,237 4.4 -25.1°
Maximum altitude 06:29:48 34° 101° (E) 1,217 4.5 -25.1°
Drops below altitude 10° 06:34:25 10° 37° (NE) 2,278 6.8 -24.9°
Sets 06:36:57 0° 29° (NNE) 3,211 8.0 -24.7°
